FW7230 Weather Reports


time (UTC)temp
C
wind
direction
speed
KPH
gust
KPH
rain 1hr
cm
rain 24hr
cm
rain mn
cm
humidity
%
barometer
mb
20260508013343 18 270 1.6 1.6 0.00 0.00 0.00 33 1009.3
20260508012353 20 270 0.0 6.4 0.00 0.00 0.00 33 1009.2
20260508011336 20 269 1.6 8.0 0.00 0.00 0.00 38 1009.1
20260508010337 21 297 6.4 9.7 0.00 0.00 0.00 39 1009.0
20260508005408 21 277 9.7 16.1 0.00 0.00 0.00 37 1008.7
20260508004813 22 221 9.7 19.3 0.00 0.00 0.00 37 1008.4
20260508003351 22 221 11.3 19.3 0.00 0.00 0.00 36 1008.3
20260508002332 22 229 9.7 16.1 0.00 0.00 0.00 36 1008.2
20260508001337 22 224 11.3 20.9 0.00 0.00 0.00 35 1008.2
20260508000335 22 233 8.0 22.5 0.00 0.00 0.00 34 1008.3
20260507235340 23 224 11.3 20.9 0.00 0.00 0.00 34 1008.2
20260507234543 23 222 14.5 20.9 0.00 0.00 0.00 33 1008.2
20260507233331 23 229 6.4 17.7 0.00 0.00 0.00 33 1008.3
20260507232338 23 232 9.7 20.9 0.00 0.00 0.00 34 1008.4
20260507231345 22 239 11.3 22.5 0.00 0.00 0.00 34 1008.5
20260507230810 23 246 14.5 24.1 0.00 0.00 0.00 32 1008.5
20260507224341 23 207 9.7 25.7 0.00 0.00 0.00 33 1008.6
20260507223338 23 225 14.5 25.7 0.00 0.00 0.00 34 1008.7
20260507222326 22 210 16.1 24.1 0.00 0.00 0.00 35 1008.7
20260507221355 22 256 9.7 22.5 0.00 0.00 0.00 35 1009.0
20260507220330 22 214 11.3 29.0 0.00 0.00 0.00 34 1009.2
20260507215337 22 221 9.7 17.7 0.00 0.00 0.00 35 1009.4
20260507214343 22 271 14.5 24.1 0.00 0.00 0.00 33 1009.5
20260507213340 22 257 12.9 25.7 0.00 0.00 0.00 35 1009.6
20260507212326 22 224 19.3 29.0 0.00 0.00 0.00 34 1009.7
20260507211329 22 224 12.9 22.5 0.00 0.00 0.00 34 1010.0
20260507210346 21 257 12.9 32.2 0.00 0.00 0.00 38 1010.1
20260507210044 21 218 12.9 33.8 0.00 0.00 0.00 39 1010.4
20260507203334 21 220 12.9 24.1 0.00 0.00 0.00 37 1010.7
20260507202401 21 201 14.5 30.6 0.00 0.00 0.00 38 1010.7
20260507201544 21 203 16.1 29.0 0.00 0.00 0.00 38 1010.8
20260507200347 21 218 12.9 25.7 0.00 0.00 0.00 37 1010.9
20260507195326 21 269 16.1 29.0 0.00 0.00 0.00 37 1011.1
20260507194330 21 197 14.5 27.4 0.00 0.00 0.00 40 1011.1
20260507193349 20 205 12.9 27.4 0.00 0.00 0.00 39 1011.2
20260507193044 21 215 19.3 27.4 0.00 0.00 0.00 41 1011.4
20260507191334 20 180 14.5 29.0 0.00 0.00 0.00 40 1011.4
20260507190349 20 191 14.5 30.6 0.00 0.00 0.00 40 1011.4
20260507185328 20 198 9.7 19.3 0.00 0.00 0.00 45 1011.6
20260507184356 20 224 17.7 29.0 0.00 0.00 0.00 41 1011.7
20260507184043 20 204 17.7 33.8 0.00 0.00 0.00 41 1012.0
20260507181332 20 236 16.1 32.2 0.00 0.00 0.00 42 1012.2
20260507180349 20 208 16.1 27.4 0.00 0.00 0.00 41 1012.2
20260507175328 19 221 17.7 30.6 0.00 0.00 0.00 41 1012.5
20260507174334 19 188 14.5 27.4 0.00 0.00 0.00 43 1012.6
20260507173333 18 237 16.1 29.0 0.00 0.00 0.00 44 1012.7
20260507172339 18 217 16.1 29.0 0.00 0.00 0.00 44 1012.9
20260507171340 18 243 19.3 29.0 0.00 0.00 0.00 44 1013.0
20260507165545 17 235 16.1 30.6 0.00 0.00 0.00 50 1013.4
20260507164337 17 270 16.1 32.2 0.00 0.00 0.00 49 1013.5
20260507163354 17 198 16.1 27.4 0.00 0.00 0.00 49 1013.6
20260507162356 17 233 16.1 27.4 0.00 0.00 0.00 49 1013.8
20260507161339 17 223 14.5 30.6 0.00 0.00 0.00 52 1013.9
20260507160336 16 262 14.5 25.7 0.00 0.00 0.00 52 1014.0
20260507155342 16 262 14.5 27.4 0.00 0.00 0.00 53 1014.1
20260507154328 16 263 16.1 27.4 0.00 0.00 0.00 55 1014.2
20260507153346 16 225 14.5 25.7 0.00 0.00 0.00 57 1014.3
20260507152328 15 218 14.5 24.1 0.00 0.00 0.00 58 1014.4
20260507151816 15 256 14.5 25.7 0.00 0.00 0.00 59 1014.6
20260507150546 14 207 12.9 24.1 0.00 0.00 0.00 63 1014.6
20260507145344 13 280 12.9 35.4 0.00 0.00 0.00 63 1014.7
20260507144332 13 257 16.1 24.1 0.00 0.00 0.00 65 1014.8
20260507143349 13 220 12.9 25.7 0.00 0.00 0.00 66 1014.9
20260507142329 13 263 11.3 19.3 0.00 0.00 0.00 68 1015.0
20260507141336 12 243 12.9 19.3 0.00 0.00 0.00 68 1015.0
20260507140335 12 263 14.5 20.9 0.00 0.00 0.00 69 1015.0
20260507135336 12 246 14.5 20.9 0.00 0.00 0.00 70 1015.0
20260507134813 11 224 9.7 19.3 0.00 0.00 0.00 74 1015.0
20260507133335 11 246 12.9 17.7 0.00 0.00 0.00 74 1015.1
20260507133046 11 238 8.0 16.1 0.00 0.00 0.00 78 1015.2
20260507131337 11 235 8.0 14.5 0.00 0.00 0.00 78 1015.2
20260507130336 10 256 6.4 12.9 0.00 0.00 0.00 81 1015.2
20260507125342 10 226 6.4 11.3 0.00 0.00 0.00 83 1015.2
20260507124329 9 211 4.8 8.0 0.00 0.00 0.00 84 1015.2
20260507123326 8 198 3.2 6.4 0.00 0.00 0.00 86 1015.2
20260507122330 7 204 1.6 4.8 0.00 0.00 0.00 91 1015.1
20260507121336 6 229 0.0 3.2 0.00 0.00 0.00 94 1015.0
20260507120334 5 307 0.0 0.0 0.00 0.00 0.00 95 1014.8
20260507115400 3 307 0.0 0.0 0.00 0.00 0.00 95 1015.0
20260507114326 2 307 0.0 0.0 0.00 0.00 0.00 94 1015.1
20260507113326 2 307 0.0 0.0 0.00 0.00 0.00 93 1015.1
20260507112331 2 307 0.0 0.0 0.00 0.00 0.00 92 1015.1
20260507111338 2 307 0.0 0.0 0.00 0.00 0.00 92 1015.0
20260507111047 2 307 0.0 0.0 0.00 0.00 0.00 91 1015.1
20260507105547 2 307 0.0 0.0 0.00 0.00 0.00 91 1015.1
20260507104332 2 307 0.0 0.0 0.00 0.00 0.00 91 1015.0
20260507103547 2 307 0.0 0.0 0.00 0.00 0.00 90 1015.1
20260507102329 2 307 0.0 0.0 0.00 0.00 0.00 89 1015.2
20260507101358 2 307 0.0 0.0 0.00 0.00 0.00 89 1015.2
20260507100335 3 307 0.0 0.0 0.00 0.00 0.00 88 1015.3
20260507095341 3 290 0.0 0.0 0.00 0.00 0.00 87 1015.3
20260507094329 3 291 0.0 0.0 0.00 0.00 0.00 87 1015.3
20260507093326 3 291 0.0 0.0 0.00 0.00 0.00 84 1015.3
20260507092331 3 290 0.0 0.0 0.00 0.00 0.00 86 1015.4
20260507091334 3 290 0.0 0.0 0.00 0.00 0.00 86 1015.3
20260507090546 3 291 0.0 0.0 0.00 0.00 0.00 86 1015.5
20260507085331 3 290 0.0 0.0 0.00 0.00 0.00 87 1015.6
20260507084338 3 291 0.0 0.0 0.00 0.00 0.00 87 1015.6
20260507083335 3 290 0.0 0.0 0.00 0.00 0.00 87 1015.8
20260507082344 3 290 0.0 0.0 0.00 0.00 0.00 87 1015.8
20260507081331 3 290 0.0 0.0 0.00 0.00 0.00 87 1015.9
20260507080330 3 290 0.0 0.0 0.00 0.00 0.00 88 1015.9
20260507075337 3 291 0.0 0.0 0.00 0.00 0.00 88 1015.9
20260507074326 3 291 0.0 0.0 0.00 0.00 0.00 90 1016.0
20260507073326 3 291 0.0 0.0 0.00 0.00 0.00 91 1016.2
20260507072330 3 291 0.0 0.0 0.00 0.00 0.00 92 1016.3
20260507071548 2 291 0.0 1.6 0.00 0.00 0.00 92 1016.4
20260507070334 2 290 1.6 1.6 0.00 0.00 0.00 92 1016.5
20260507065338 2 290 0.0 0.0 0.00 0.00 0.00 92 1016.7
20260507064336 2 290 1.6 3.2 0.00 0.00 0.00 92 1016.7
20260507063334 2 360 3.2 3.2 0.00 0.00 0.00 91 1016.7
20260507062340 2 360 0.0 0.0 0.00 0.00 0.00 90 1016.8
20260507061332 2 359 0.0 3.2 0.00 0.00 0.00 91 1016.8
20260507060350 3 360 3.2 3.2 0.00 0.00 0.00 91 1016.8
20260507055330 3 360 3.2 3.2 0.00 0.00 0.00 90 1016.9
20260507054337 3 360 1.6 3.2 0.00 0.00 0.00 89 1017.0
20260507053356 3 360 0.0 1.6 0.00 0.00 0.00 89 1017.1
20260507052344 3 360 3.2 3.2 0.00 0.00 0.00 89 1017.1
20260507052049 3 360 3.2 3.2 0.00 0.00 0.00 89 1017.1
20260507050344 3 359 3.2 3.2 0.00 0.00 0.00 88 1017.1
20260507045347 4 359 1.6 1.6 0.00 0.00 0.00 88 1017.1
20260507044338 4 359 0.0 3.2 0.00 0.00 0.00 87 1017.2
20260507043336 5 359 0.0 1.6 0.00 0.00 0.00 86 1017.3
20260507042342 5 360 0.0 1.6 0.00 0.00 0.00 86 1017.2
20260507041330 5 360 0.0 1.6 0.00 0.00 0.00 85 1017.3
20260507040349 5 360 3.2 3.2 0.00 0.00 0.00 85 1017.3
20260507035329 5 360 3.2 3.2 0.00 0.00 0.00 84 1017.4
20260507034336 5 319 3.2 3.2 0.00 0.00 0.00 83 1017.4
20260507033337 5 275 3.2 3.2 0.00 0.00 0.00 82 1017.4
20260507032343 6 276 1.6 3.2 0.00 0.00 0.00 81 1017.4
20260507031332 6 276 1.6 1.6 0.00 0.00 0.00 79 1017.4
20260507030331 6 276 1.6 1.6 0.00 0.00 0.00 78 1017.4
20260507025340 6 275 0.0 1.6 0.00 0.00 0.00 77 1017.4
20260507024329 6 275 0.0 3.2 0.00 0.00 0.00 76 1017.4
20260507023344 6 275 1.6 1.6 0.00 0.00 0.00 74 1017.3
20260507022325 7 276 1.6 1.6 0.00 0.00 0.00 72 1017.3
20260507021352 7 275 0.0 3.2 0.00 0.00 0.00 71 1017.1
20260507020349 7 274 0.0 0.0 0.00 0.00 0.00 69 1017.0
20260507015330 8 274 0.0 0.0 0.00 0.00 0.00 64 1017.0
20260507014336 8 275 0.0 0.0 0.00 0.00 0.00 59 1017.0